Weather History for Siren, WI

Change the Weather History Date:

Sunday, April 28, 2013

  Actual Average Record
Temperature  
Mean Temperature 62 °F -  
Max Temperature 73 °F - - ()
Min Temperature 50 °F - - ()
Degree Days  
Heating Degree Days 4    
Growing Degree Days 12 (Base 50)    
Moisture  
Dew Point 46 °F    
Average Humidity 62    
Maximum Humidity 100    
Minimum Humidity 35    
Precipitation  
Precipitation 0.25 in - - ()
Sea Level Pressure  
Sea Level Pressure 29.78 in    
Wind  
Wind Speed 10 mph (SW)    
Max Wind Speed 20 mph    
Max Gust Speed 28 mph    
Visibility 10 miles    
Events Rain    
T = Trace of Precipitation, MM = Missing Value Source: NWS Daily Summary

Daily Weather History Graph

Daily Weather History Graph

Search for Another Location

Airport:

Trip Planner

Search our weather history database for the weather conditions in past years. The results will help you decide how hot, cold, wet, or windy it might be!

Date:

Astronomy

Apr. 28, 2013 Rise Set
Actual Time 6:01 AM CDT 8:13 PM CDT
Civil Twilight 5:28 AM CDT 8:46 PM CDT
Nautical Twilight 4:48 AM CDT 9:26 PM CDT
Astronomical Twilight 4:03 AM CDT 10:12 PM CDT
Moon 11:50 PM CDT (4/28) 8:12 AM CDT (4/28)
Length of Visible Light 15h 17m
Length of Day
14h 12m
Waning Gibbous, 88% of the Moon is Illuminated
Apr 28
Waning Gibbous
May 2
Last Quarter
May 9
New
May 17
First Quarter
May 24
Full

Hourly Weather History & Observations

Time (CDT) Temp. Dew Point Humidity Pressure Visibility Wind Dir Wind Speed Gust Speed Precip Events Conditions
12:15 AM 57.2 °F 44.6 °F 63% 29.89 in 10.0 mi SSW 10.4 mph - N/A   Clear
12:35 AM 59.0 °F 44.6 °F 59% 29.88 in 10.0 mi SSW 9.2 mph - N/A   Clear
12:55 AM 57.2 °F 44.6 °F 63% 29.89 in 10.0 mi SSW 9.2 mph - N/A   Clear
1:15 AM 55.4 °F 44.6 °F 67% 29.88 in 10.0 mi SSW 10.4 mph 16.1 mph N/A   Clear
1:35 AM 55.4 °F 44.6 °F 67% 29.88 in 10.0 mi SSW 11.5 mph 16.1 mph N/A   Clear
1:55 AM 55.4 °F 44.6 °F 67% 29.88 in 10.0 mi SSW 10.4 mph - N/A   Clear
2:15 AM 55.4 °F 42.8 °F 63% 29.88 in 10.0 mi SW 9.2 mph - N/A   Clear
2:35 AM 53.6 °F 42.8 °F 67% 29.87 in 10.0 mi SSW 9.2 mph - N/A   Clear
2:55 AM 53.6 °F 42.8 °F 67% 29.87 in 10.0 mi SW 8.1 mph - N/A   Clear
3:35 AM 51.8 °F 42.8 °F 71% 29.86 in 10.0 mi SSW 9.2 mph - N/A   Clear
3:55 AM 51.8 °F 42.8 °F 71% 29.86 in 10.0 mi SSW 6.9 mph - N/A   Clear
4:15 AM 51.8 °F 42.8 °F 71% 29.86 in 10.0 mi SSW 8.1 mph - N/A   Clear
4:35 AM 51.8 °F 42.8 °F 71% 29.86 in 10.0 mi SSW 10.4 mph - N/A   Clear
4:55 AM 51.8 °F 42.8 °F 71% 29.86 in 10.0 mi SW 9.2 mph - N/A   Clear
5:15 AM 51.8 °F 42.8 °F 71% 29.86 in 10.0 mi SW 8.1 mph - N/A   Clear
5:35 AM 51.8 °F 42.8 °F 71% 29.86 in 10.0 mi SW 8.1 mph - N/A   Clear
5:55 AM 50.0 °F 42.8 °F 76% 29.86 in 10.0 mi SW 8.1 mph - N/A   Clear
6:15 AM 50.0 °F 42.8 °F 76% 29.85 in 10.0 mi SSW 6.9 mph - N/A   Clear
6:35 AM 50.0 °F 42.8 °F 76% 29.85 in 10.0 mi SSW 9.2 mph - N/A   Clear
6:55 AM 50.0 °F 42.8 °F 76% 29.84 in 10.0 mi SSW 10.4 mph - N/A   Clear
7:15 AM 51.8 °F 42.8 °F 71% 29.83 in 10.0 mi SSW 9.2 mph - N/A   Clear
7:35 AM 53.6 °F 42.8 °F 67% 29.84 in 10.0 mi SSW 8.1 mph - N/A   Clear
7:55 AM 53.6 °F 42.8 °F 67% 29.84 in 10.0 mi SSW 9.2 mph - N/A   Clear
8:15 AM 55.4 °F 42.8 °F 63% 29.83 in 10.0 mi South 10.4 mph - N/A   Clear
8:35 AM 57.2 °F 42.8 °F 59% 29.83 in 10.0 mi SSW 9.2 mph - N/A   Clear
8:55 AM 59.0 °F 44.6 °F 59% 29.81 in 10.0 mi SSW 9.2 mph 16.1 mph N/A   Clear
9:15 AM 59.0 °F 44.6 °F 59% 29.81 in 10.0 mi SW 10.4 mph 19.6 mph N/A   Clear
9:35 AM 60.8 °F 44.6 °F 55% 29.80 in 10.0 mi South 12.7 mph 17.3 mph N/A   Clear
9:55 AM 62.6 °F 44.6 °F 52% 29.79 in 10.0 mi SSW 10.4 mph 17.3 mph N/A   Clear
10:35 AM 64.4 °F 44.6 °F 49% 29.78 in 10.0 mi South 13.8 mph - N/A   Clear
10:55 AM 66.2 °F 44.6 °F 46% 29.77 in 10.0 mi SSW 15.0 mph 20.7 mph N/A   Clear
11:15 AM 66.2 °F 42.8 °F 43% 29.77 in 10.0 mi SW 19.6 mph 24.2 mph N/A   Clear
11:35 AM 68.0 °F 42.8 °F 40% 29.77 in 10.0 mi SW 16.1 mph - N/A   Clear
11:55 AM 68.0 °F 42.8 °F 40% 29.76 in 10.0 mi SW 15.0 mph 24.2 mph N/A   Clear
12:15 PM 69.8 °F 42.8 °F 38% 29.76 in 10.0 mi SSW 18.4 mph 25.3 mph N/A   Clear
12:35 PM 69.8 °F 42.8 °F 38% 29.75 in 10.0 mi South 19.6 mph 24.2 mph N/A   Clear
12:55 PM 69.8 °F 42.8 °F 38% 29.74 in 10.0 mi SW 15.0 mph 23.0 mph N/A   Scattered Clouds
1:15 PM 69.8 °F 42.8 °F 38% 29.74 in 10.0 mi SW 17.3 mph 27.6 mph N/A   Scattered Clouds
1:35 PM 69.8 °F 42.8 °F 38% 29.74 in 10.0 mi SW 13.8 mph 23.0 mph N/A   Mostly Cloudy
1:55 PM 69.8 °F 42.8 °F 38% 29.74 in 10.0 mi SW 16.1 mph 23.0 mph N/A   Mostly Cloudy
2:15 PM 69.8 °F 44.6 °F 40% 29.73 in 10.0 mi SSW 18.4 mph 25.3 mph N/A   Scattered Clouds
2:35 PM 69.8 °F 44.6 °F 40% 29.72 in 10.0 mi SW 11.5 mph 23.0 mph N/A   Mostly Cloudy
2:55 PM 71.6 °F 44.6 °F 38% 29.72 in 10.0 mi SW 11.5 mph 20.7 mph N/A   Scattered Clouds
3:15 PM 71.6 °F 42.8 °F 35% 29.71 in 10.0 mi SW 16.1 mph 21.9 mph N/A   Clear
3:35 PM 71.6 °F 44.6 °F 38% 29.70 in 10.0 mi SW 15.0 mph 21.9 mph N/A   Scattered Clouds
3:55 PM 71.6 °F 44.6 °F 38% 29.70 in 10.0 mi WSW 17.3 mph - N/A   Clear
4:15 PM 71.6 °F 44.6 °F 38% 29.70 in 10.0 mi SSW 15.0 mph 19.6 mph N/A   Scattered Clouds
4:35 PM 71.6 °F 44.6 °F 38% 29.70 in 10.0 mi SW 10.4 mph 18.4 mph N/A   Clear
4:55 PM 73.4 °F 44.6 °F 36% 29.70 in 10.0 mi SSW 11.5 mph 18.4 mph N/A   Scattered Clouds
5:15 PM 71.6 °F 44.6 °F 38% 29.70 in 10.0 mi SW 10.4 mph - N/A   Mostly Cloudy
5:35 PM 71.6 °F 44.6 °F 38% 29.69 in 10.0 mi SW 6.9 mph - N/A   Scattered Clouds
5:55 PM 73.4 °F 44.6 °F 36% 29.68 in 10.0 mi WSW 9.2 mph - N/A   Clear
6:15 PM 73.4 °F 44.6 °F 36% 29.68 in 10.0 mi SW 9.2 mph - N/A   Scattered Clouds
6:35 PM 71.6 °F 44.6 °F 38% 29.67 in 10.0 mi South 4.6 mph - N/A   Mostly Cloudy
6:55 PM 68.0 °F 50.0 °F 52% 29.70 in 5.0 mi NNW 13.8 mph 19.6 mph 0.06 in Rain Heavy Rain
7:15 PM 60.8 °F 53.6 °F 77% 29.73 in 4.0 mi West 4.6 mph - 0.18 in Rain Rain
7:35 PM 59.0 °F 55.4 °F 88% 29.73 in 10.0 mi ENE 3.5 mph - 0.18 in   Mostly Cloudy
7:55 PM 60.8 °F 55.4 °F 82% 29.73 in 10.0 mi Calm Calm - 0.19 in   Overcast
8:15 PM 59.0 °F 55.4 °F 88% 29.74 in 10.0 mi Calm Calm - N/A   Mostly Cloudy
8:35 PM 55.4 °F 53.6 °F 94% 29.74 in 7.0 mi NE 3.5 mph - N/A   Scattered Clouds
8:55 PM 55.4 °F 53.6 °F 94% 29.74 in 7.0 mi Calm Calm - N/A   Scattered Clouds
9:15 PM 55.4 °F 53.6 °F 94% 29.75 in 5.0 mi Calm Calm - N/A   Overcast
9:35 PM 55.4 °F 55.4 °F 100% 29.76 in 7.0 mi South 4.6 mph - N/A   Overcast
9:55 PM 55.4 °F 55.4 °F 100% 29.75 in 10.0 mi Calm Calm - N/A   Overcast
10:15 PM 57.2 °F 53.6 °F 88% 29.74 in 10.0 mi Calm Calm - N/A   Overcast
10:35 PM 55.4 °F 53.6 °F 94% 29.74 in 10.0 mi Calm Calm - N/A Rain Light Rain
10:55 PM 55.4 °F 53.6 °F 94% 29.74 in 10.0 mi Calm Calm - N/A   Overcast
11:15 PM 53.6 °F 53.6 °F 100% 29.73 in 10.0 mi Calm Calm - N/A   Scattered Clouds
11:35 PM 53.6 °F 51.8 °F 94% 29.73 in 10.0 mi NW 4.6 mph - N/A   Mostly Cloudy
11:55 PM 53.6 °F 51.8 °F 94% 29.73 in 10.0 mi Calm Calm - N/A   Overcast